Content
SEND FEEDBACK

Daily
Averages
Monthly
Summary
United States of America

PEETZ, COLORADO


Home > North America > United States > Colorado
Elevation: 4298 feet     Latitude: 41 06N     Longitude: 102 59W

WEATHER
 
SELECT A DAY
Number of Records: 197,562;   Date Range: 1/1/95 - 10/23/14
 
SHARE

PRINT THIS DATA

[ ← Previous Day ]
WEATHER ALMANAC - JANUARY 31, 2013
[ Next Day → ]
[ °C ]   °F
Weather ElementAverageHighLow
Temperature23.9 °F27 °F (1:53 am)19.4 °F (9:37 am)
Dewpoint15.6 °F21.2 °F (1:07 am)10 °F (11:53 am)
Humidity71 %81 % (2:53 am)60 % (1:53 pm)
Barometer30.16 in30.29 in (11:53 am)29.89 in (1:07 am)
Wind Speed10.9 mph17.3 mph (6:53 am)
Weather ElementAverage
Visibility10 mi
Wind DirectionWSW (242.6 °)

Weather ElementTotal
Precipitation---
Heating Degree Days41.8 (Base 65)
Averaged from 23 records on January 31, 2013
WEATHER CONDITIONS BREAKOUT
WIND DIRECTION BREAKOUT
WEATHER BY HOUR - JANUARY 31, 2013
[ °C ]   °F
Local TimeTemperatureDewpointHumidityBarometerVisibilityWind DirectionWind SpeedGust SpeedPrecipitationEventsConditions
1:07 AM26.6 °F21.2 °F80 %29.89 in10.0 miNW (320°)10.4 mphOvercast
1:53 AM27.0 °F21.0 °F78 %29.99 in10.0 miWNW (300°)8.1 mphOvercast
2:53 AM25.0 °F19.9 °F81 %29.99 in10.0 miNW (310°)9.2 mphOvercast
3:53 AM26.1 °F19.0 °F75 %29.99 in10.0 miNW (310°)11.5 mphOvercast
4:53 AM26.1 °F19.0 °F75 %30.02 in10.0 miNW (320°)9.2 mphOvercast
5:53 AM25.0 °F17.1 °F72 %30.05 in10.0 miNW (310°)10.4 mphOvercast
6:53 AM24.1 °F16.0 °F71 %30.10 in10.0 miNNW (340°)17.3 mphOvercast
7:53 AM24.1 °F16.0 °F71 %30.13 in10.0 miNNW (340°)15.0 mphOvercast
8:53 AM25.0 °F17.1 °F72 %30.19 in10.0 miNorth (350°)17.3 mphOvercast
9:37 AM19.4 °F14.0 °F80 %30.12 in10.0 miNE (40°)10.4 mphOvercast
9:53 AM19.9 °F14.0 °F78 %30.26 in10.0 miNE (50°)10.4 mphOvercast
10:17 AM19.4 °F12.2 °F74 %30.15 in10.0 miNNE (20°)9.2 mphOvercast
10:37 AM21.2 °F12.2 °F68 %30.15 in10.0 miNorth (10°)8.1 mphOvercast
10:53 AM19.9 °F12.0 °F71 %30.27 in10.0 miNorth (10°)13.8 mphOvercast
11:53 AM19.9 °F10.0 °F65 %30.29 in10.0 miNorth (360°)16.1 mphOvercast
12:53 PM21.0 °F10.0 °F63 %30.27 in10.0 miNW (310°)8.1 mphMostly Cloudy
1:53 PM24.1 °F12.0 °F60 %30.24 in10.0 miWNW (300°)8.1 mphOvercast
2:53 PM25.0 °F12.9 °F60 %30.24 in10.0 miNW (320°)9.2 mphOvercast
3:53 PM26.1 °F14.0 °F60 %30.23 in10.0 miWNW (300°)11.5 mphOvercast
5:53 PM27.0 °F16.0 °F63 %30.22 in10.0 miNW (310°)10.4 mphOvercast
7:53 PM25.0 °F17.1 °F72 %30.28 in10.0 miSW (220°)10.4 mphOvercast
8:53 PM26.1 °F18.0 °F71 %30.27 in10.0 miSW (220°)8.1 mphOvercast
9:53 PM27.0 °F19.0 °F72 %30.28 in10.0 miSSW (210°)8.1 mphOvercast
Hourly data recorded from KSNY, located miles away from Peetz, Colorado







STORIES FROM OUR PARTNERS